Flag for Cook Islands Weather past 2 weeks in Rarotonga, Cook Islands

Now
N/A

Partly sunny.


Feels Like: N/A
Forecast: 76 / 85 °F
Wind: 24 mph from Southwest

Location: Rarotonga

Current Time: Mar 29, 2015 at 3:12:33 PM

Latest Report: Mar 29, 2015 at 2:00 PM


Visibility: N/A

Pressure: 29.80 "Hg

Humidity: N/A

Dew point: N/A

Location of RarotongaLocation

Historic Weather in Rarotonga — Graph

°F

Rarotonga temperature yesterday

Maximum temperature yesterday: 81 °F (at 8:00 AM)
Minimum temperature yesterday: 77 °F (at 12:00 AM)
Average temperature yesterday: 79 °F

Past Weeks' High & Low Weather Summary

 TemperatureHumidityPressure
High91 °F (Mar 27, 12:00 PM)100% (Mar 23, 7:00 AM)29.98 "Hg (Mar 23, 7:00 AM)
Low72 °F (Mar 15, 10:00 PM)26% (Mar 29, 7:00 AM)29.65 "Hg (Mar 21, 5:00 AM)
Average81 °F82%29.82 "Hg
* Reported Mar 14 1:00 PM — Mar 29 1:00 PM, Rarotonga, Weather by CustomWeather, © 2015

Note: Actual official high and low records may vary slightly from our data, if they occured in-between our weather recording intervals... More about our weather records

Advertising

Rarotonga weather history for previous 24 hours

 ConditionsComfort  
Time TempWeatherWind HumidityBarometerVisibility
1:00 PM
Sun, Mar 29
81 °FScattered clouds.16 mph79%29.80 "HgN/A
12:00 PM82 °FScattered clouds.18 mph79%29.80 "HgN/A
11:00 AM81 °FPartly sunny.17 mph84%29.83 "HgN/A
10:00 AM81 °FPartly sunny.21 mph84%29.83 "HgN/A
9:00 AM81 °FScattered showers. Scattered clouds.22 mph84%29.83 "HgN/A
8:00 AM81 °FScattered clouds.25 mph89%29.80 "HgN/A
7:00 AM79 °FScattered clouds.26 mph26%29.77 "HgN/A
6:00 AM79 °FPassing clouds.23 mph94%29.74 "HgN/A
5:00 AM79 °FPassing clouds.31 mph94%29.71 "HgN/A
4:00 AM77 °FPassing clouds.32 mph100%29.71 "HgN/A
3:00 AM77 °FPassing clouds.35 mph100%29.71 "HgN/A
1:00 AM81 °FMostly cloudy.31 mph94%29.77 "HgN/A
12:00 AM81 °FDrizzle. Mostly cloudy.26 mph94%29.77 "HgN/A
11:00 PM
Sat, Mar 28
81 °FSprinkles. Mostly cloudy.13 mph94%29.77 "HgN/A
10:00 PM81 °FSprinkles. Mostly cloudy.13 mph89%29.80 "HgN/A
9:00 PM81 °FSprinkles. Mostly cloudy.13 mph89%29.80 "HgN/A
8:00 PM81 °FSprinkles. Mostly cloudy.13 mph89%29.80 "HgN/A
7:00 PM77 °FDrizzle. Overcast.3 mph94%29.77 "HgN/A
6:00 PM77 °FScattered clouds.6 mph94%29.80 "HgN/A
5:00 PM77 °FScattered clouds.3 mph94%29.80 "HgN/A
4:00 PM79 °FScattered clouds.9 mph94%29.80 "HgN/A
3:00 PM81 °FSprinkles. Scattered clouds.10 mph89%29.80 "HgN/A
Weather by CustomWeather, © 2015

See weather overviewHow to use our weather pages